Time,TemperatureF,DewpointF,PressureIn,WindDirection,WindDirectionDegrees,WindSpeedMPH,WindSpeedGustMPH,Humidity,HourlyPrecipIn,Conditions,Clouds,dailyrainin,SoftwareType,DateUTC
2013-11-07 00:19:00,51.0,45.7,29.93,South,180,4.0,4.0,82,0.00,,---,0.00,VWS V14.01,2013-11-07 05:19:00,
2013-11-07 00:20:00,51.0,45.7,29.93,South,180,4.0,4.0,82,0.00,,---,0.00,VWS V14.01,2013-11-07 05:20:00,
2013-11-07 00:25:00,51.0,45.7,29.93,South,180,1.7,1.7,82,0.00,,---,0.00,VWS V14.01,2013-11-07 05:25:00,
2013-11-07 00:30:00,51.2,45.9,29.93,SE,135,6.0,6.0,82,0.00,,---,0.00,VWS V14.01,2013-11-07 05:30:00,
2013-11-07 00:35:00,51.2,45.9,29.93,SE,135,0.0,0.0,82,0.00,,---,0.00,VWS V14.01,2013-11-07 05:35:00,
2013-11-07 00:40:00,51.0,45.7,29.91,SE,135,4.2,4.2,82,0.00,,---,0.00,VWS V14.01,2013-11-07 05:40:00,
2013-11-07 00:45:00,51.0,45.7,29.91,South,180,0.0,0.0,82,0.00,,---,0.00,VWS V14.01,2013-11-07 05:45:00,
2013-11-07 00:50:00,50.9,45.6,29.91,SSE,158,0.0,0.0,82,0.00,,---,0.00,VWS V14.01,2013-11-07 05:50:00,
2013-11-07 00:55:00,50.9,45.6,29.91,SE,135,2.9,2.9,82,0.00,,---,0.00,VWS V14.01,2013-11-07 05:55:00,
2013-11-07 01:02:00,50.7,45.7,29.91,SE,135,5.5,5.5,83,0.00,,---,0.00,VWS V14.01,2013-11-07 06:02:00,
2013-11-07 01:07:00,50.7,45.7,29.90,WSW,248,0.0,0.0,83,0.00,,---,0.00,VWS V14.01,2013-11-07 06:07:00,
2013-11-07 01:12:00,50.7,45.7,29.91,South,180,1.1,1.1,83,0.00,,---,0.00,VWS V14.01,2013-11-07 06:12:00,
2013-11-07 01:21:00,50.7,45.7,29.89,SSE,158,4.2,4.2,83,0.00,,---,0.00,VWS V14.01,2013-11-07 06:21:00,
2013-11-07 01:26:00,50.7,45.7,29.90,SE,135,0.0,0.0,83,0.00,,---,0.00,VWS V14.01,2013-11-07 06:26:00,
2013-11-07 01:31:00,50.7,45.7,29.90,SE,135,3.1,3.1,83,0.00,,---,0.00,VWS V14.01,2013-11-07 06:31:00,
2013-11-07 01:36:00,50.7,45.7,29.89,SE,135,0.2,0.2,83,0.00,,---,0.00,VWS V14.01,2013-11-07 06:36:00,
2013-11-07 01:41:00,50.7,45.7,29.90,SE,135,0.0,0.0,83,0.00,,---,0.00,VWS V14.01,2013-11-07 06:41:00,
2013-11-07 01:46:00,50.7,45.7,29.90,NW,315,0.0,0.0,83,0.00,,---,0.00,VWS V14.01,2013-11-07 06:46:00,
2013-11-07 01:51:00,50.7,45.7,29.89,NW,315,0.0,0.0,83,0.00,,---,0.00,VWS V14.01,2013-11-07 06:51:00,
2013-11-07 01:56:00,50.7,46.0,29.89,SE,135,0.0,0.0,84,0.00,,---,0.00,VWS V14.01,2013-11-07 06:56:00,
2013-11-07 02:01:00,50.5,45.8,29.89,WSW,248,0.0,0.0,84,0.00,,---,0.00,VWS V14.01,2013-11-07 07:01:00,
2013-11-07 02:06:00,50.5,45.8,29.89,SSW,202,3.5,3.5,84,0.00,,---,0.00,VWS V14.01,2013-11-07 07:06:00,
2013-11-07 02:11:00,50.5,45.8,29.89,NNW,338,0.0,0.0,84,0.00,,---,0.00,VWS V14.01,2013-11-07 07:11:00,
2013-11-07 02:16:00,50.5,45.8,29.89,South,180,0.0,0.0,84,0.00,,---,0.00,VWS V14.01,2013-11-07 07:16:00,
2013-11-07 02:21:00,50.5,45.8,29.88,NNW,338,0.0,0.0,84,0.00,,---,0.00,VWS V14.01,2013-11-07 07:21:00,
2013-11-07 02:26:00,50.5,45.8,29.88,SE,135,0.0,0.0,84,0.00,,---,0.00,VWS V14.01,2013-11-07 07:26:00,
2013-11-07 02:31:00,50.5,45.8,29.87,WSW,248,0.0,0.0,84,0.00,,---,0.00,VWS V14.01,2013-11-07 07:31:00,
2013-11-07 02:36:00,50.5,46.2,29.88,NNW,338,0.0,0.0,85,0.00,,---,0.00,VWS V14.01,2013-11-07 07:36:00,
2013-11-07 02:41:00,50.3,46.0,29.88,SSW,202,0.0,0.0,85,0.00,,---,0.00,VWS V14.01,2013-11-07 07:41:00,
2013-11-07 02:47:00,50.5,46.2,29.88,SE,135,0.0,0.0,85,0.00,,---,0.00,VWS V14.01,2013-11-07 07:47:00,
2013-11-07 02:52:00,50.3,46.0,29.87,WNW,292,0.0,0.0,85,0.00,,---,0.00,VWS V14.01,2013-11-07 07:52:00,
2013-11-07 02:57:00,50.3,46.0,29.87,South,180,0.0,0.0,85,0.00,,---,0.00,VWS V14.01,2013-11-07 07:57:00,
2013-11-07 03:02:00,50.3,46.0,29.87,North,0,2.4,2.4,85,0.00,,---,0.00,VWS V14.01,2013-11-07 08:02:00,
2013-11-07 03:07:00,50.3,46.0,29.87,SE,135,0.0,0.0,85,0.00,,---,0.00,VWS V14.01,2013-11-07 08:07:00,
2013-11-07 03:12:00,50.3,46.0,29.87,SSE,158,0.0,0.0,85,0.00,,---,0.00,VWS V14.01,2013-11-07 08:12:00,
2013-11-07 03:17:00,50.3,46.0,29.86,WNW,292,0.0,0.0,85,0.00,,---,0.00,VWS V14.01,2013-11-07 08:17:00,
2013-11-07 05:03:00,50.3,46.6,29.83,SSE,158,0.0,0.0,87,0.00,,---,0.00,VWS V14.01,2013-11-07 10:03:00,
2013-11-07 05:09:00,50.3,46.6,29.82,SSE,158,0.0,0.0,87,0.00,,---,0.00,VWS V14.01,2013-11-07 10:09:00,
2013-11-07 05:14:00,50.3,46.6,29.82,SE,135,0.0,0.0,87,0.00,,---,0.00,VWS V14.01,2013-11-07 10:14:00,
2013-11-07 05:18:00,50.3,46.6,29.82,SSE,158,0.0,0.0,87,0.00,,---,0.00,VWS V14.01,2013-11-07 10:18:00,
2013-11-07 05:23:00,50.3,46.6,29.82,WNW,292,0.0,0.0,87,0.00,,---,0.00,VWS V14.01,2013-11-07 10:23:00,
2013-11-07 05:28:00,50.3,46.6,29.81,WSW,248,0.0,0.0,87,0.00,,---,0.00,VWS V14.01,2013-11-07 10:28:00,
2013-11-07 05:33:00,50.1,46.4,29.81,SE,135,0.0,0.0,87,0.00,,---,0.00,VWS V14.01,2013-11-07 10:33:00,
2013-11-07 05:38:00,50.1,46.4,29.81,NNE,22,0.0,0.0,87,0.00,,---,0.00,VWS V14.01,2013-11-07 10:38:00,
2013-11-07 05:43:00,50.1,46.4,29.81,NNW,338,0.0,0.0,87,0.00,,---,0.00,VWS V14.01,2013-11-07 10:43:00,
2013-11-07 05:48:00,50.1,46.4,29.81,SE,135,0.0,0.0,87,0.00,,---,0.00,VWS V14.01,2013-11-07 10:48:00,
2013-11-07 05:53:00,50.1,46.4,29.82,SSE,158,0.0,0.0,87,0.00,,---,0.00,VWS V14.01,2013-11-07 10:53:00,
2013-11-07 05:58:00,50.1,46.4,29.81,NW,315,0.0,0.0,87,0.00,,---,0.00,VWS V14.01,2013-11-07 10:58:00,
2013-11-07 06:03:00,50.1,46.4,29.81,SE,135,0.0,0.0,87,0.00,,---,0.00,VWS V14.01,2013-11-07 11:03:00,
2013-11-07 06:08:00,50.1,46.4,29.81,WNW,292,0.0,0.0,87,0.00,,---,0.00,VWS V14.01,2013-11-07 11:08:00,
2013-11-07 06:13:00,50.0,46.3,29.82,NW,315,0.0,0.0,87,0.00,,---,0.00,VWS V14.01,2013-11-07 11:13:00,
2013-11-07 06:18:00,50.0,46.3,29.82,SE,135,0.0,0.0,87,0.00,,---,0.00,VWS V14.01,2013-11-07 11:18:00,
2013-11-07 06:23:00,49.8,46.1,29.82,West,270,0.0,0.0,87,0.00,,---,0.00,VWS V14.01,2013-11-07 11:23:00,
2013-11-07 06:28:00,49.8,46.1,29.82,NNW,338,0.0,0.0,87,0.00,,---,0.00,VWS V14.01,2013-11-07 11:28:00,
2013-11-07 06:33:00,49.8,46.4,29.82,NE,45,0.0,0.0,88,0.00,,---,0.00,VWS V14.01,2013-11-07 11:33:00,
2013-11-07 06:34:00,49.8,46.4,29.82,NE,45,0.0,0.0,88,0.00,,---,0.00,VWS V14.01,2013-11-07 11:34:00,
2013-11-07 06:39:00,49.8,46.4,29.82,West,270,0.0,0.0,88,0.00,,---,0.00,VWS V14.01,2013-11-07 11:39:00,
2013-11-07 06:44:00,49.8,46.4,29.83,NW,315,0.0,0.0,88,0.00,,---,0.00,VWS V14.01,2013-11-07 11:44:00,
2013-11-07 06:49:00,49.8,46.4,29.83,NW,315,0.0,0.0,88,0.00,,---,0.00,VWS V14.01,2013-11-07 11:49:00,
2013-11-07 06:54:00,49.8,46.4,29.85,North,0,0.0,0.0,88,0.00,,---,0.00,VWS V14.01,2013-11-07 11:54:00,
2013-11-07 06:59:00,49.6,45.6,29.85,North,0,0.0,0.0,86,0.00,,---,0.00,VWS V14.01,2013-11-07 11:59:00,
2013-11-07 07:04:00,49.1,44.8,29.86,NE,45,4.9,4.9,85,0.00,,---,0.00,VWS V14.01,2013-11-07 12:04:00,
2013-11-07 07:09:00,48.7,44.1,29.86,NNW,338,0.0,0.0,84,0.00,,---,0.00,VWS V14.01,2013-11-07 12:09:00,
2013-11-07 07:14:00,48.2,43.6,29.86,NW,315,3.5,3.5,84,0.00,,---,0.00,VWS V14.01,2013-11-07 12:14:00,
2013-11-07 07:19:00,48.0,43.4,29.87,SSE,158,0.0,0.0,84,0.00,,---,0.00,VWS V14.01,2013-11-07 12:19:00,
2013-11-07 07:24:00,47.6,43.3,29.87,North,0,0.0,0.0,85,0.00,,---,0.00,VWS V14.01,2013-11-07 12:24:00,
2013-11-07 07:29:00,47.1,42.5,29.87,West,270,0.0,0.0,84,0.00,,---,0.00,VWS V14.01,2013-11-07 12:29:00,
2013-11-07 07:34:00,46.9,42.3,29.88,NNE,22,0.0,0.0,84,0.00,,---,0.00,VWS V14.01,2013-11-07 12:34:00,
2013-11-07 07:39:00,46.5,41.9,29.88,SSW,202,1.5,1.5,84,0.00,,---,0.00,VWS V14.01,2013-11-07 12:39:00,
2013-11-07 07:44:00,46.2,41.6,29.88,NW,315,0.0,0.0,84,0.00,,---,0.00,VWS V14.01,2013-11-07 12:44:00,
2013-11-07 07:49:00,46.0,41.4,29.88,NNW,338,0.6,0.6,84,0.00,,---,0.00,VWS V14.01,2013-11-07 12:49:00,
2013-11-07 07:54:00,45.6,41.4,29.88,WNW,292,0.0,0.0,85,0.00,,---,0.00,VWS V14.01,2013-11-07 12:54:00,
2013-11-07 08:52:00,43.5,39.3,29.90,NNW,338,0.0,0.0,85,0.00,,---,0.00,VWS V14.01,2013-11-07 13:52:00,
2013-11-07 08:57:00,43.1,38.9,29.90,NW,315,0.0,0.0,85,0.00,,---,0.00,VWS V14.01,2013-11-07 13:57:00,
2013-11-07 09:02:00,42.9,38.7,29.90,NNW,338,2.4,2.4,85,0.00,,---,0.00,VWS V14.01,2013-11-07 14:02:00,
2013-11-07 09:07:00,42.9,38.7,29.90,NNW,338,0.0,0.0,85,0.00,,---,0.00,VWS V14.01,2013-11-07 14:07:00,
2013-11-07 09:12:00,42.6,38.4,29.89,NNW,338,0.0,0.0,85,0.00,,---,0.00,VWS V14.01,2013-11-07 14:12:00,
2013-11-07 09:17:00,42.6,38.4,29.88,NW,315,0.0,0.0,85,0.00,,---,0.00,VWS V14.01,2013-11-07 14:17:00,
2013-11-07 09:22:00,42.4,38.2,29.89,NNW,338,0.0,0.0,85,0.00,,---,0.00,VWS V14.01,2013-11-07 14:22:00,
2013-11-07 11:32:00,40.2,36.1,29.90,NW,315,3.5,3.5,85,0.00,,---,0.00,VWS V14.01,2013-11-07 16:32:00,
2013-11-07 11:37:00,40.2,36.1,29.90,NNW,338,0.0,0.0,85,0.00,,---,0.00,VWS V14.01,2013-11-07 16:37:00,
2013-11-07 11:42:00,40.1,36.0,29.89,NW,315,0.0,0.0,85,0.00,,---,0.00,VWS V14.01,2013-11-07 16:42:00,
2013-11-07 13:05:00,38.4,34.6,29.90,NW,315,0.0,0.0,86,0.00,,---,0.00,VWS V14.01,2013-11-07 18:05:00,
2013-11-07 13:06:00,38.4,34.6,29.90,NW,315,0.0,0.0,86,0.00,,---,0.00,VWS V14.01,2013-11-07 18:06:00,
2013-11-07 13:11:00,38.4,34.6,29.90,NW,315,0.0,0.0,86,0.00,,---,0.00,VWS V14.01,2013-11-07 18:11:00,
2013-11-07 13:16:00,38.4,34.6,29.90,East,90,0.0,0.0,86,0.00,,---,0.00,VWS V14.01,2013-11-07 18:16:00,
2013-11-07 13:21:00,38.4,34.6,29.89,NW,315,0.0,0.0,86,0.00,,---,0.00,VWS V14.01,2013-11-07 18:21:00,
2013-11-07 13:25:00,38.4,34.6,29.89,NW,315,0.0,0.0,86,0.00,,---,0.00,VWS V14.01,2013-11-07 18:25:00,
2013-11-07 13:30:00,38.4,34.6,29.89,NW,315,0.0,0.0,86,0.00,,---,0.00,VWS V14.01,2013-11-07 18:30:00,
2013-11-07 13:35:00,38.4,34.6,29.89,NW,315,0.0,0.0,86,0.00,,---,0.00,VWS V14.01,2013-11-07 18:35:00,
2013-11-07 13:40:00,38.3,34.5,29.89,NNW,338,0.0,0.0,86,0.00,,---,0.00,VWS V14.01,2013-11-07 18:40:00,
2013-11-07 13:45:00,38.3,34.5,29.90,ENE,68,0.0,0.0,86,0.00,,---,0.00,VWS V14.01,2013-11-07 18:45:00,
2013-11-07 13:50:00,38.3,34.5,29.90,NE,45,0.0,0.0,86,0.00,,---,0.00,VWS V14.01,2013-11-07 18:50:00,
2013-11-07 13:55:00,38.3,34.5,29.90,SE,135,0.0,0.0,86,0.00,,---,0.00,VWS V14.01,2013-11-07 18:55:00,
2013-11-07 14:00:00,38.1,34.3,29.89,NNW,338,0.0,0.0,86,0.00,,---,0.00,VWS V14.01,2013-11-07 19:00:00,
2013-11-07 14:05:00,38.1,34.3,29.89,NW,315,0.0,0.0,86,0.00,,---,0.00,VWS V14.01,2013-11-07 19:05:00,
2013-11-07 17:07:00,35.4,30.8,29.90,NNW,338,0.0,0.0,83,0.00,,---,0.00,VWS V14.01,2013-11-07 22:07:00,
2013-11-07 17:12:00,35.4,30.8,29.90,NW,315,0.0,0.0,83,0.00,,---,0.00,VWS V14.01,2013-11-07 22:12:00,
2013-11-07 17:17:00,35.4,30.8,29.91,NNW,338,0.0,0.0,83,0.00,,---,0.00,VWS V14.01,2013-11-07 22:17:00,
2013-11-07 17:22:00,35.4,30.8,29.90,NNW,338,0.0,0.0,83,0.00,,---,0.00,VWS V14.01,2013-11-07 22:22:00,
2013-11-07 17:27:00,35.2,30.6,29.91,North,0,5.3,5.3,83,0.00,,---,0.00,VWS V14.01,2013-11-07 22:27:00,
2013-11-07 17:32:00,35.2,30.6,29.91,NW,315,0.0,0.0,83,0.00,,---,0.00,VWS V14.01,2013-11-07 22:32:00,
2013-11-07 17:37:00,35.2,30.6,29.91,NNW,338,1.1,1.1,83,0.00,,---,0.00,VWS V14.01,2013-11-07 22:37:00,
2013-11-07 17:41:00,35.2,30.6,29.91,West,270,0.0,0.0,83,0.00,,---,0.00,VWS V14.01,2013-11-07 22:41:00,
2013-11-07 17:46:00,35.2,30.6,29.91,NNW,338,0.0,0.0,83,0.00,,---,0.00,VWS V14.01,2013-11-07 22:46:00,
2013-11-07 17:51:00,35.0,30.4,29.91,NNW,338,0.0,0.0,83,0.00,,---,0.00,VWS V14.01,2013-11-07 22:51:00,
2013-11-07 17:56:00,34.8,30.2,29.91,NNW,338,0.0,0.0,83,0.00,,---,0.00,VWS V14.01,2013-11-07 22:56:00,
2013-11-07 18:01:00,34.8,30.2,29.92,North,0,0.0,0.0,83,0.00,,---,0.00,VWS V14.01,2013-11-07 23:01:00,
2013-11-07 18:06:00,34.8,30.2,29.92,NW,315,0.0,0.0,83,0.00,,---,0.00,VWS V14.01,2013-11-07 23:06:00,
2013-11-07 18:11:00,34.7,29.8,29.92,NW,315,0.0,0.0,82,0.00,,---,0.00,VWS V14.01,2013-11-07 23:11:00,
2013-11-07 18:16:00,34.7,29.8,29.92,NNW,338,0.0,0.0,82,0.00,,---,0.00,VWS V14.01,2013-11-07 23:16:00,
2013-11-07 18:21:00,34.5,29.3,29.92,North,0,0.0,0.0,81,0.00,,---,0.00,VWS V14.01,2013-11-07 23:21:00,
2013-11-07 18:26:00,34.5,29.3,29.93,NNW,338,8.2,8.2,81,0.00,,---,0.00,VWS V14.01,2013-11-07 23:26:00,
2013-11-07 21:08:00,31.1,26.0,29.95,NE,45,0.0,0.0,81,0.00,,---,0.00,VWS V14.01,2013-11-08 02:08:00,
2013-11-07 21:12:00,31.1,26.0,29.95,NE,45,0.0,0.0,81,0.00,,---,0.00,VWS V14.01,2013-11-08 02:12:00,
2013-11-07 21:17:00,31.1,26.0,29.95,NW,315,0.0,0.0,81,0.00,,---,0.00,VWS V14.01,2013-11-08 02:17:00,
2013-11-07 21:22:00,31.1,26.0,29.95,WNW,292,0.0,0.0,81,0.00,,---,0.00,VWS V14.01,2013-11-08 02:22:00,
2013-11-07 21:29:00,30.9,25.8,29.95,WNW,292,0.0,0.0,81,0.00,,---,0.00,VWS V14.01,2013-11-08 02:29:00,
2013-11-07 21:34:00,31.1,26.0,29.94,WNW,292,0.0,0.0,81,0.00,,---,0.00,VWS V14.01,2013-11-08 02:34:00,
2013-11-07 21:39:00,31.1,26.0,29.94,WNW,292,0.0,0.0,81,0.00,,---,0.00,VWS V14.01,2013-11-08 02:39:00,
2013-11-07 21:44:00,31.1,26.0,29.94,WNW,292,0.0,0.0,81,0.00,,---,0.00,VWS V14.01,2013-11-08 02:44:00,
2013-11-07 21:49:00,31.1,26.0,29.94,WNW,292,0.0,0.0,81,0.00,,---,0.00,VWS V14.01,2013-11-08 02:49:00,
2013-11-07 21:54:00,31.1,26.0,29.94,WNW,292,0.0,0.0,81,0.00,,---,6.02,VWS V14.01,2013-11-08 02:54:00,
2013-11-07 21:59:00,31.1,26.0,29.94,WNW,292,0.0,0.0,81,0.00,,---,0.00,VWS V14.01,2013-11-08 02:59:00,
2013-11-07 22:04:00,31.1,26.0,29.94,WNW,292,0.0,0.0,81,0.00,,---,0.00,VWS V14.01,2013-11-08 03:04:00,
2013-11-07 22:09:00,31.1,26.0,29.93,WNW,292,0.0,0.0,81,0.00,,---,0.00,VWS V14.01,2013-11-08 03:09:00,
2013-11-07 22:14:00,31.1,26.0,29.94,WNW,292,0.0,0.0,81,0.00,,---,0.00,VWS V14.01,2013-11-08 03:14:00,
2013-11-07 22:19:00,31.2,26.1,29.94,WNW,292,0.0,0.0,81,0.00,,---,0.00,VWS V14.01,2013-11-08 03:19:00,
2013-11-07 22:24:00,31.1,26.0,29.94,WNW,292,0.0,0.0,81,0.00,,---,0.00,VWS V14.01,2013-11-08 03:24:00,
2013-11-07 22:29:00,31.1,26.0,29.93,WNW,292,0.0,0.0,81,0.00,,---,0.00,VWS V14.01,2013-11-08 03:29:00,
2013-11-07 22:34:00,31.1,26.0,29.93,WNW,292,0.0,0.0,81,0.00,,---,0.00,VWS V14.01,2013-11-08 03:34:00,
2013-11-07 22:39:00,31.1,26.0,29.93,NW,315,0.0,0.0,81,0.00,,---,0.00,VWS V14.01,2013-11-08 03:39:00,
2013-11-07 22:44:00,31.1,26.0,29.93,NNW,338,0.0,0.0,81,0.00,,---,0.00,VWS V14.01,2013-11-08 03:44:00,
2013-11-07 22:49:00,31.1,26.0,29.93,NNW,338,0.0,0.0,81,0.00,,---,0.00,VWS V14.01,2013-11-08 03:49:00,
2013-11-07 22:54:00,30.9,25.5,29.92,WNW,292,0.0,0.0,80,0.00,,---,0.00,VWS V14.01,2013-11-08 03:54:00,
2013-11-07 22:59:00,30.9,25.5,29.92,WNW,292,0.0,0.0,80,0.00,,---,0.00,VWS V14.01,2013-11-08 03:59:00,
2013-11-07 23:04:00,30.9,25.5,29.92,NW,315,0.0,0.0,80,0.00,,---,0.00,VWS V14.01,2013-11-08 04:04:00,
2013-11-07 23:09:00,30.9,25.5,29.92,WNW,292,0.0,0.0,80,0.00,,---,0.00,VWS V14.01,2013-11-08 04:09:00,
2013-11-07 23:16:00,30.9,25.5,29.92,North,0,0.0,0.0,80,0.00,,---,0.00,VWS V14.01,2013-11-08 04:16:00,
2013-11-07 23:21:00,30.9,25.5,29.92,NNW,338,0.0,0.0,80,0.00,,---,0.00,VWS V14.01,2013-11-08 04:21:00,
2013-11-07 23:26:00,30.9,25.2,29.92,WNW,292,0.0,0.0,79,0.00,,---,0.00,VWS V14.01,2013-11-08 04:26:00,
2013-11-07 23:31:00,30.9,25.2,29.92,NNW,338,0.0,0.0,79,0.00,,---,0.00,VWS V14.01,2013-11-08 04:31:00,
2013-11-07 23:36:00,30.9,25.2,29.92,NNW,338,0.0,0.0,79,0.00,,---,0.00,VWS V14.01,2013-11-08 04:36:00,
2013-11-07 23:41:00,30.9,25.2,29.92,NNW,338,0.0,0.0,79,0.00,,---,0.00,VWS V14.01,2013-11-08 04:41:00,
2013-11-07 23:46:00,30.9,25.2,29.91,NNW,338,0.0,0.0,79,0.00,,---,0.00,VWS V14.01,2013-11-08 04:46:00,
2013-11-07 23:51:00,30.9,25.2,29.92,NNW,338,0.0,0.0,79,0.00,,---,0.00,VWS V14.01,2013-11-08 04:51:00,
2013-11-07 23:56:00,30.9,25.2,29.91,NNW,338,0.0,0.0,79,0.00,,---,0.00,VWS V14.01,2013-11-08 04:56:00,